SB KEPS @ AMSAT $ORB11125.N 2Line Orbital Elements 11125.AMSAT
HR AMSAT ORBITAL ELEMENTS FOR AMATEUR SATELLITES IN NASA FORMAT FROM WA5QGD FORT WORTH,TX May 5, 2011 Send Subscribe/unsubscribe to KEPS at http://www.amsat.org/mailman/listinfo/keps BID: ORB11125.N
DECODE 2-LINE ELSETS WITH THE FOLLOWING KEY: 1 AAAAAU 00 0 0 BBBBB.BBBBBBBB .CCCCCCCC 00000-0 00000-0 0 DDDZ 2 AAAAA EEE.EEEE FFF.FFFF GGGGGGG HHH.HHHH III.IIII JJ.JJJJJJJJKKKKKZ KEY: A-CATALOGNUM B-EPOCHTIME C-DECAY D-ELSETNUM E-INCLINATION F-RAAN G-ECCENTRICITY H-ARGPERIGEE I-MNANOM J-MNMOTION K-ORBITNUM Z-CHECKSUM
TO ALL RADIO AMATEURS BT
AO-07 1 07530U 74089B 11124.58202319 -.00000027 00000-0 10000-3 0 00706 2 07530 101.3930 132.8442 0011893 006.2793 353.8428 12.53582238668728 FO-29 1 24278U 96046B 11124.94214898 -.00000055 00000-0 -19969-4 0 05921 2 24278 098.5398 274.9075 0350838 009.4586 351.2932 13.52960509726617 SO-33 1 25509U 98061B 11124.41329260 .00000321 00000-0 49526-4 0 09605 2 25509 031.4312 131.8958 0354309 218.7997 138.6688 14.28392393654019 RS-22 1 27939U 03042A 11125.76741697 .00000383 00000-0 82227-4 0 2291 2 27939 097.8516 341.7839 0014450 116.7996 243.4670 14.63571818406130 VO-52 1 28650U 05017B 11124.68276755 .00001058 00000-0 13896-3 0 07867 2 28650 097.6449 169.7516 0026006 306.2618 053.6217 14.82034382324308 SO-67 1 35870U 09049F 11125.84758567 .00003257 00000-0 15142-3 0 8054 2 35870 097.2846 170.6116 0002751 135.6528 345.3049 15.20650881 90506 HO-68 1 36122U 09072B 11125.67425519 -.00000045 00000-0 00000 0 0 3455 2 36122 100.4183 187.1219 0007344 324.7730 035.2898 13.16285739 66648 UO-11 1 14781U 84021B 11124.86859911 .00000744 00000-0 10547-3 0 05476 2 14781 098.0097 181.7071 0007945 280.9363 079.0952 14.79957372459382 AO-16 1 20439U 90005D 11125.88649918 .00000130 00000-0 64314-4 0 1803 2 20439 098.3806 076.9262 0010237 292.8655 067.1445 14.31916447111567 LO-19 1 20442U 90005G 11124.92463744 .00000122 00000-0 60985-4 0 01072 2 20442 098.3428 080.5165 0011038 287.5373 072.4603 14.32142365111603 AO-27 1 22825U 93061C 11125.72916146 .00000106 00000-0 58336-4 0 8090 2 22825 098.5278 071.0653 0009219 044.1486 316.0427 14.29344064918121 IO-26 1 22826U 93061D 11125.38643433 .00000100 00000-0 55938-4 0 5523 2 22826 098.5231 071.2181 0009755 039.4010 320.7877 14.29605267918197 GO-32 1 25397U 98043D 11125.23764213 .00000125 00000-0 73413-4 0 4713 2 25397 098.3225 120.1004 0002111 059.3857 300.7534 14.23206990665855 NO-44 1 26931U 01043C 11124.94725294 -.00000103 00000-0 -78736-5 0 07451 2 26931 067.0496 094.9417 0007200 263.4885 096.5398 14.29653424500740 SO-50 1 27607U 02058C 11125.39273334 .00000779 00000-0 14189-3 0 4579 2 27607 064.5564 097.7112 0068258 330.8133 028.9170 14.71724888449791 CO-55 1 27844U 03031E 11125.50107961 .00000211 00000-0 11800-3 0 1024 2 27844 098.7061 134.8225 0009380 327.0078 033.0518 14.20802307406850 CO-57 1 27848U 03031J 11125.57874269 .00000159 00000-0 94419-4 0 519 2 27848 098.7117 134.0734 0009497 331.7902 028.2745 14.20582753406814 AO-51 1 28375U 04025K 11124.63599779 .00000120 00000-0 48937-4 0 9606 2 28375 098.0946 105.3802 0082884 201.8801 157.8837 14.40751695359796 CP3 1 31129U 07012N 11124.61154775 .00000556 00000-0 13817-3 0 08629 2 31129 097.9010 151.3350 0101215 316.8668 042.4626 14.52462723214513 CO-65 1 32785U 08021C 11125.27184208 .00001128 00000-0 14871-3 0 9815 2 32785 097.8518 189.9792 0014093 319.8268 040.1899 14.81964832163180 KKS-1 1 33493U 09002B 11125.75014802 .00002650 00000-0 34292-3 0 5509 2 33493 098.1185 253.7584 0019975 175.0098 185.1333 14.81622877123232 SOHLA-1 1 33496U 09002E 11124.88371996 .00000495 00000-0 91477-4 0 04148 2 33496 098.0761 235.1633 0005526 262.1048 097.9530 14.69605960122129 TISAT-1 1 36799U 10035E 11125.76188510 .00001661 00000-0 22367-3 0 8254 2 36799 098.1042 193.5864 0016496 057.2938 302.9877 14.80507654 44033 STUDSAT 1 36801U 10035G 11124.75744378 .00003947 00000-0 52200-3 0 1785 2 36801 098.1085 192.4209 0014705 049.2426 311.0061 14.80479482 43873 RAX 1 37223U 0 11089.46431449 .00000660 00000-0 10054-3 0 01224 2 37223 071.9716 212.4675 0019443 068.5267 291.7923 14.77296529019265 OOREOS 1 37224U 10062C 11076.42207246 .00000868 00000-0 13086-3 0 01095 2 37224 071.9712 241.3960 0017800 096.5373 263.7815 14.76929834017329 FAST1 1 37227U 0 11125.24135406 .00000574 00000-0 90067-4 0 00180 2 37227 071.9684 133.9575 0017065 355.5275 004.5700 14.76571414002987 NANOSALD 1 37361U 0 11116.73946851 .00110781 00000-0 10779-1 0 01606 2 37361 071.9704 150.7935 0033612 294.3537 065.3944 14.91486360014433 FAST2 1 37380U 0 11125.24822848 .00000498 00000-0 79525-4 0 01545 2 37380 071.9716 133.9983 0017701 352.8289 007.2583 14.76338325024523 NOAA-10 1 16969U 86073A 11124.96166952 .00000110 00000-0 62729-4 0 04984 2 16969 098.6237 155.3288 0012232 356.3107 003.7979 14.27458320281489 NOAA-11 1 19531U 88089A 11124.78134771 .00000167 00000-0 10878-3 0 04939 2 19531 098.7513 213.0650 0010679 315.5497 044.4807 14.14914575166616 NOAA-12 1 21263U 91032A 11124.92586621 .00000172 00000-0 91249-4 0 09963 2 21263 098.7529 142.8449 0011693 316.3883 043.6372 14.25707755038245 MET-3/5 1 21655U 91056A 11124.83179607 .00000051 00000-0 10000-3 0 01048 2 21655 082.5557 081.4029 0012109 266.5649 093.4096 13.17030559948015 MET-2/21 1 22782U 93055A 11125.73640715 -.00000014 00000-0 -25915-4 0 877 2 22782 082.5496 356.5632 0021348 215.3376 144.6369 13.83657763892687 OKEAN-4 1 23317U 94066A 11125.52365757 .00001030 00000-0 12344-3 0 5459 2 23317 082.5402 052.9732 0020143 259.6619 100.2325 14.83050052894221 NOAA-14 1 23455U 94089A 11124.93685750 -.00000001 00000-0 22669-4 0 04863 2 23455 098.8530 208.0007 0010207 045.7315 314.4689 14.13816407842965 NOAA-15 1 25338U 98030A 11124.83974921 .00000334 00000-0 16162-3 0 08025 2 25338 098.6508 111.5822 0009955 214.7448 145.3063 14.24909608674559 RESURS 1 25394U 98043A 11124.97180556 .00000037 00000-0 33666-4 0 08051 2 25394 098.2983 130.3755 0002006 030.7280 329.4018 14.24232059666159 FENGYUN1 1 25730U 99025A 11125.90783689 .00000407 00000-0 26130-3 0 3172 2 25730 098.8174 088.0377 0025545 068.3874 292.0002 14.08604932617114 OKEAN-0 1 25860U 99039A 11124.98136363 .00000421 00000-0 71878-4 0 03007 2 25860 097.8800 092.6264 0001745 094.5692 265.5715 14.73771058634294 NOAA-16 1 26536U 00055A 11124.80007776 -.00000059 00000-0 -68234-5 0 02847 2 26536 099.1423 154.4545 0011105 150.9425 209.2362 14.12612934547232 NOAA-17 1 27453U 02032A 11124.90142894 .00000121 00000-0 70538-4 0 02785 2 27453 098.3822 166.5897 0010716 276.3569 083.6357 14.24266632460491 NOAA-18 1 28654U 05018A 11124.92976645 .00000222 00000-0 14710-3 0 07581 2 28654 098.9922 075.9784 0013670 224.7821 135.2284 14.11468214306825 NOAA-19 1 33591U 09005A 11124.91747800 -.00000026 00000-0 96880-5 0 09502 2 33591 098.8244 065.8047 0015019 097.4244 262.8651 14.11159166115286 HUBBLE 1 20580U 90037B 11123.84563713 .00001993 00000-0 13844-3 0 7587 2 20580 028.4711 306.0920 0003234 008.7594 351.3362 15.01330296952981 ISS 1 25544U 98067A 11126.07665311 .00027365 00000-0 18770-3 0 3049 2 25544 051.6459 016.9971 0002718 218.8539 244.0236 15.74499380714271 CO-58 1 28895U 05043F 11125.57713461 .00000546 00000-0 12263-3 0 8652 2 28895 097.9709 003.5993 0017655 358.4736 001.6373 14.60085230294020 FALCON 1 30776U 07006E 11124.71249023 .00003560 00000-0 25181-3 0 785 2 30776 035.4345 251.3040 0001061 033.2808 326.7976 15.04525874228492 MAST 1 31126U 07012K 11125.56818653 .00000456 00000-0 11328-3 0 1507 2 31126 097.8998 155.1967 0093599 303.9568 055.2754 14.53735252214897 CAPE1 1 31130U 07012P 11124.96350307 .00000806 00000-0 19574-3 0 01692 2 31130 097.8998 151.4553 0101721 316.2369 043.0848 14.52373819214362 COMPASS 1 32787U 08021E 11125.68628627 .00002011 00000-0 25745-3 0 9779 2 32787 097.8498 190.2883 0014841 318.2483 041.7582 14.82363274163267 AAUSAT2 1 32788U 08021F 11124.71036763 .00002106 00000-0 26818-3 0 09707 2 32788 097.8505 189.5405 0014424 322.3422 037.6807 14.82540846163136 DO-64 1 32789U 08021G 11124.86811465 .00003162 00000-0 39529-3 0 09867 2 32789 097.8603 190.6185 0014308 319.4069 040.6045 14.82962602163168 CO-66 1 32791U 08021J 11125.22161637 .00001763 00000-0 22808-3 0 9700 2 32791 097.8503 189.7866 0015414 319.0621 040.9390 14.82065253163144 RS-30 1 32953U 08025A 11125.72988548 .00000010 00000-0 00000 0 0 7008 2 32953 082.5042 189.1151 0020387 118.1866 242.1276 12.43012320133810 TACSAT-3 1 35001U 09028A 11125.29870189 .00025306 00000-0 47308-3 0 5821 2 35001 040.4531 072.9951 0024522 251.8917 107.9228 15.47774442110432 PHARMSAT 1 35002U 09028B 11125.25695736 .00022041 00000-0 41544-3 0 5415 2 35002 040.4640 070.8088 0025463 259.8646 099.9290 15.47569928110456 HAWKSAT1 1 35003U 09028C 11125.86704247 .00084815 00000-0 96852-3 0 6062 2 35003 040.4542 044.1616 0024023 284.9818 074.8078 15.60778733110806 CP6 1 35004U 09028D 11125.85371899 .00114009 00000-0 10802-2 0 6109 2 35004 040.4566 037.6910 0023331 287.1272 072.5434 15.65415678110865 METEOR-M 1 35865U 09049A 11125.71744284 .00000176 00000-0 10000-3 0 3381 2 35865 098.7092 181.3881 0002664 135.8451 224.2904 14.21837794 84550 RS-38 1 35869U 09049E 11125.72269207 .00000177 00000-0 10000-3 0 3362 2 35869 098.7062 181.4314 0004876 144.5352 215.6124 14.22009163 84568 /EX